Voltar ao catálogo

SL-12 R/B(2)

AtivoGEO
NORAD 21925·ROCKET BODY·🇷🇺 Russia

Lançado Apr 2, 1992 de Baikonur Cosmodrome

Loading…

TLE

AtualizadoSource: Space-Track

Época: Aug 28, 2026, 04:09 UTC

1 21925U 92017D   26240.17353227 -.00000199  00000-0  00000+0 0  9991
2 21925  13.0096 340.0390 0020403  72.0444 301.2118  1.01088279126044

Acompanhe SL-12 R/B(2) em tempo real com AllMySat

Download on the App Store